Regional Weather Roundup
Issued by NWS Sioux Falls, SD

Home | Current Version | Previous Version | Graphics & Text | Print | Product List | Glossary On
Versions: 1 2 3 4 5 6 7 8 9 10 11 12 13 14 15 16 17 18 19 20 21 22 23 24 25 26 27 28 29 30 31 32 33 34 35 36 37 38 39 40 41 42 43 44 45 46 47 48 49 50
000
ASUS43 KFSD 200002
RWRFSD

WEATHER ROUNDUP FOR SE SOUTH DAKOTA/SW MINNESOTA/NW IOWA
NATIONAL WEATHER SERVICE SIOUX FALLS SD
700 PM CDT TUE SEP 19 2017

NOTE: "FAIR" INDICATES FEW OR NO CLOUDS BELOW 12,000 FEET WITH NO
SIGNIFICANT WEATHER AND OR OBSTRUCTIONS TO VISIBILITY.


SDZ038>040-050-052>070-200100-
SOUTHEAST SOUTH DAKOTA

CITY           SKY/WX    TMP DP  RH WIND       PRES   REMARKS
BROOKINGS      CLOUDY    75  68  78 S22G30    29.54R
CHAMBERLAIN    CLEAR     81  68  64 S7        29.45S
6HR MIN TEMP:  78; 6HR MAX TEMP:  86;

HURON          MOCLDY    81  68  64 SE14G22   29.44F
6HR MIN TEMP:  73; 6HR MAX TEMP:  83;

MADISON        CLOUDY    75  73  94 SE14      29.54R
MITCHELL       CLOUDY    83  68  60 S20G26    29.46S
6HR MIN TEMP:  78; 6HR MAX TEMP:  84;

SIOUX FALLS    CLOUDY    81  69  67 S16G24    29.53R
6HR MIN TEMP:  72; 6HR MAX TEMP:  82;

WINNER         FAIR      81  67  62 SW5       29.47S
YANKTON        CLOUDY    82  69  64 SE16G23   29.49S
$$

MNZ071-072-080-081-089-090-097-098-200100-
SOUTHWEST MINNESOTA

CITY           SKY/WX    TMP DP  RH WIND       PRES   REMARKS
FAIRMONT       CLOUDY    76  66  71 SE17G29   29.64F
JACKSON        PTCLDY    75  64  69 SE20G26   29.63F
LUVERNE        CLOUDY    77  64  65 S12G20    29.57R
MARSHALL       CLOUDY    77  68  73 SE20      29.55R
6HR MIN TEMP:  72; 6HR MAX TEMP:  78;

MONTEVIDEO     CLOUDY    75  66  73 S17       29.55S
PIPESTONE      CLOUDY    75  66  73 S15G22    29.57R
REDWOOD FALLS  CLOUDY    78  64  61 SE23G33   29.58S
TRACY          CLOUDY    77  69  78 SE15G28   29.57S
WINDOM         CLOUDY    77  64  65 SE20G26   29.60F
WORTHINGTON    CLOUDY    76  67  73 SE15G25   29.60S
$$

IAZ001>003-012>014-020>022-031-032-NEZ013-014-SDZ071-200100-
NORTHWEST IOWA

CITY           SKY/WX    TMP DP  RH WIND       PRES   REMARKS
CHEROKEE       CLOUDY    78  69  73 SE17      29.59S
DENISON        CLEAR     79  68  69 S16G23    29.62S
ESTHERVILLE    CLOUDY    75  68  78 SE20G32   29.62F
LE MARS        PTCLDY    81  68  65 SE17G30   29.54S
ORANGE CITY    CLOUDY    81  72  74 SE16G24   29.56S
SHELDON        CLOUDY    79  68  69 SE17G30   29.56S
SIOUX CITY     CLOUDY    82  68  62 SE16G25   29.53R
6HR MIN TEMP:  80; 6HR MAX TEMP:  85;

SPENCER        CLOUDY    78  67  68 SE20G30   29.60F
6HR MIN TEMP:  72; 6HR MAX TEMP:  81;

STORM LAKE     CLOUDY    77  68  73 SE22G29   29.61F
$$

ABBREVIATIONS USED IN REMARKS
   TC - TEMPERATURE IN CELSIUS
  WCI - WIND CHILL INDEX
   HX - HEAT INDEX
  VSB - VISIBILITY





USA.gov is the U.S. government's official web portal to all federal, state and local government web resources and services.